Time,TemperatureF,DewpointF,PressureIn,WindDirection,WindDirectionDegrees,WindSpeedMPH,WindSpeedGustMPH,Humidity,HourlyPrecipIn,Conditions,Clouds,dailyrainin,SoftwareType,DateUTC
2013-03-13 00:12:00,50.3,33.0,29.95,ESE,123,0.0,-999.0,52,-99.99,,,0.00,weatherlink.com 1.10,2013-03-13 04:12:00,
2013-03-13 00:27:00,49.7,33.0,29.96,ESE,115,0.0,-999.0,53,-99.99,,,0.00,weatherlink.com 1.10,2013-03-13 04:27:00,
2013-03-13 00:57:00,49.6,33.0,29.96,ESE,115,0.0,-999.0,53,-99.99,,,0.00,weatherlink.com 1.10,2013-03-13 04:57:00,
2013-03-13 01:12:00,48.2,33.0,29.96,ESE,105,0.0,-999.0,55,-99.99,,,0.00,weatherlink.com 1.10,2013-03-13 05:12:00,
2013-03-13 01:27:00,47.7,32.0,29.97,East,94,0.0,-999.0,56,-99.99,,,0.00,weatherlink.com 1.10,2013-03-13 05:27:00,
2013-03-13 01:56:00,47.6,32.0,29.97,SSE,167,0.0,-999.0,56,-99.99,,,0.00,weatherlink.com 1.10,2013-03-13 05:56:00,
2013-03-13 02:12:00,46.4,33.0,29.98,ESE,109,0.0,-999.0,59,-99.99,,,0.00,weatherlink.com 1.10,2013-03-13 06:12:00,
2013-03-13 02:27:00,46.0,32.0,29.98,ESE,109,0.0,-999.0,59,-99.99,,,0.00,weatherlink.com 1.10,2013-03-13 06:27:00,
2013-03-13 02:56:00,45.9,33.0,29.98,ESE,109,0.0,-999.0,60,-99.99,,,0.00,weatherlink.com 1.10,2013-03-13 06:56:00,
2013-03-13 03:12:00,45.3,32.0,29.99,ESE,109,0.0,-999.0,61,-99.99,,,0.00,weatherlink.com 1.10,2013-03-13 07:12:00,
2013-03-13 03:27:00,45.1,32.0,29.99,ESE,109,0.0,-999.0,61,-99.99,,,0.00,weatherlink.com 1.10,2013-03-13 07:27:00,
2013-03-13 03:56:00,45.0,33.0,29.99,ESE,109,0.0,-999.0,62,-99.99,,,0.00,weatherlink.com 1.10,2013-03-13 07:56:00,
2013-03-13 04:12:00,44.0,33.0,30.00,ESE,109,0.0,-999.0,66,-99.99,,,0.00,weatherlink.com 1.10,2013-03-13 08:12:00,
2013-03-13 04:27:00,43.4,33.0,30.01,ESE,109,0.0,-999.0,67,-99.99,,,0.00,weatherlink.com 1.10,2013-03-13 08:27:00,
2013-03-13 04:56:00,43.3,33.0,30.01,ESE,109,0.0,-999.0,68,-99.99,,,0.00,weatherlink.com 1.10,2013-03-13 08:56:00,
2013-03-13 05:12:00,41.8,33.0,30.01,ESE,109,0.0,-999.0,72,-99.99,,,0.00,weatherlink.com 1.10,2013-03-13 09:12:00,
2013-03-13 05:27:00,41.2,34.0,30.02,ESE,109,0.0,-999.0,74,-99.99,,,0.00,weatherlink.com 1.10,2013-03-13 09:27:00,
2013-03-13 05:56:00,41.0,34.0,30.02,ESE,109,0.0,-999.0,75,-99.99,,,0.00,weatherlink.com 1.10,2013-03-13 09:56:00,
2013-03-13 06:12:00,39.2,33.0,30.02,ESE,109,0.0,-999.0,79,-99.99,,,0.00,weatherlink.com 1.10,2013-03-13 10:12:00,
2013-03-13 06:27:00,38.4,32.0,30.03,ESE,109,0.0,-999.0,79,-99.99,,,0.00,weatherlink.com 1.10,2013-03-13 10:27:00,
2013-03-13 06:57:00,37.5,33.0,30.04,ESE,109,0.0,-999.0,83,-99.99,,,0.00,weatherlink.com 1.10,2013-03-13 10:57:00,
2013-03-13 07:12:00,37.0,33.0,30.04,ESE,109,0.0,-999.0,84,-99.99,,,0.00,weatherlink.com 1.10,2013-03-13 11:12:00,
2013-03-13 07:27:00,36.7,33.0,30.05,ESE,109,0.0,-999.0,85,-99.99,,,0.00,weatherlink.com 1.10,2013-03-13 11:27:00,
2013-03-13 07:56:00,36.6,33.0,30.05,ESE,109,0.0,-999.0,85,-99.99,,,0.00,weatherlink.com 1.10,2013-03-13 11:56:00,
2013-03-13 08:12:00,36.2,33.0,30.05,ESE,109,0.0,-999.0,88,-99.99,,,0.00,weatherlink.com 1.10,2013-03-13 12:12:00,
2013-03-13 08:27:00,36.8,33.0,30.06,ESE,109,0.0,-999.0,87,-99.99,,,0.00,weatherlink.com 1.10,2013-03-13 12:27:00,
2013-03-13 08:56:00,36.9,33.0,30.05,ESE,109,0.0,-999.0,87,-99.99,,,0.00,weatherlink.com 1.10,2013-03-13 12:56:00,
2013-03-13 09:12:00,40.9,34.0,30.06,ESE,123,0.0,-999.0,76,-99.99,,,0.00,weatherlink.com 1.10,2013-03-13 13:12:00,
2013-03-13 09:27:00,42.8,34.0,30.06,ESE,123,0.0,-999.0,72,-99.99,,,0.00,weatherlink.com 1.10,2013-03-13 13:27:00,
2013-03-13 09:56:00,43.2,34.0,30.06,ESE,123,0.0,-999.0,71,-99.99,,,0.00,weatherlink.com 1.10,2013-03-13 13:56:00,
2013-03-13 10:12:00,46.5,33.0,30.06,East,100,0.0,-999.0,60,-99.99,,,0.00,weatherlink.com 1.10,2013-03-13 14:12:00,
2013-03-13 10:27:00,47.2,33.0,30.06,East,101,0.0,-999.0,58,-99.99,,,0.00,weatherlink.com 1.10,2013-03-13 14:27:00,
2013-03-13 10:56:00,47.4,34.0,30.05,East,101,0.0,-999.0,59,-99.99,,,0.00,weatherlink.com 1.10,2013-03-13 14:56:00,
2013-03-13 11:12:00,50.9,31.0,30.05,East,92,0.0,-999.0,46,-99.99,,,0.00,weatherlink.com 1.10,2013-03-13 15:12:00,
2013-03-13 11:27:00,51.4,28.0,30.04,East,100,0.0,-999.0,41,-99.99,,,0.00,weatherlink.com 1.10,2013-03-13 15:27:00,
2013-03-13 11:56:00,51.5,28.0,30.04,East,100,0.0,-999.0,41,-99.99,,,0.00,weatherlink.com 1.10,2013-03-13 15:56:00,
2013-03-13 12:12:00,53.2,27.0,30.02,East,89,2.0,-999.0,37,-99.99,,,0.00,weatherlink.com 1.10,2013-03-13 16:12:00,
2013-03-13 12:27:00,53.4,25.0,30.02,East,99,3.0,-999.0,34,-99.99,,,0.00,weatherlink.com 1.10,2013-03-13 16:27:00,
2013-03-13 12:57:00,53.2,27.0,30.02,East,86,3.0,-999.0,36,-99.99,,,0.00,weatherlink.com 1.10,2013-03-13 16:57:00,
2013-03-13 13:12:00,53.6,27.0,30.02,ENE,74,3.0,-999.0,36,-99.99,,,0.00,weatherlink.com 1.10,2013-03-13 17:12:00,
2013-03-13 13:27:00,54.0,27.0,30.00,ESE,107,1.0,-999.0,36,-99.99,,,0.00,weatherlink.com 1.10,2013-03-13 17:27:00,
2013-03-13 13:56:00,54.2,27.0,30.00,ENE,76,6.0,-999.0,35,-99.99,,,0.00,weatherlink.com 1.10,2013-03-13 17:56:00,
2013-03-13 14:12:00,53.5,28.0,29.99,East,82,0.0,-999.0,37,-99.99,,,0.00,weatherlink.com 1.10,2013-03-13 18:12:00,
2013-03-13 14:27:00,54.9,30.0,29.98,East,86,1.0,-999.0,38,-99.99,,,0.00,weatherlink.com 1.10,2013-03-13 18:27:00,
2013-03-13 14:56:00,55.2,28.0,29.97,East,92,1.0,-999.0,36,-99.99,,,0.00,weatherlink.com 1.10,2013-03-13 18:56:00,
2013-03-13 15:12:00,56.3,27.0,29.96,NE,53,7.0,-999.0,33,-99.99,,,0.00,weatherlink.com 1.10,2013-03-13 19:12:00,
2013-03-13 15:27:00,55.8,27.0,29.96,East,90,5.0,-999.0,33,-99.99,,,0.00,weatherlink.com 1.10,2013-03-13 19:27:00,
2013-03-13 15:57:00,54.6,29.0,29.96,East,97,1.0,-999.0,37,-99.99,,,0.00,weatherlink.com 1.10,2013-03-13 19:57:00,
2013-03-13 16:12:00,56.3,29.0,29.95,East,91,6.0,-999.0,35,-99.99,,,0.00,weatherlink.com 1.10,2013-03-13 20:12:00,
2013-03-13 16:27:00,55.8,28.0,29.96,East,96,0.0,-999.0,35,-99.99,,,0.00,weatherlink.com 1.10,2013-03-13 20:27:00,
2013-03-13 16:57:00,56.2,27.0,29.96,East,101,0.0,-999.0,33,-99.99,,,0.00,weatherlink.com 1.10,2013-03-13 20:57:00,
2013-03-13 17:50:00,56.0,28.0,29.97,East,89,2.0,-999.0,34,-99.99,,,0.00,weatherlink.com 1.10,2013-03-13 21:50:00,
2013-03-13 17:56:00,55.7,25.0,29.98,SSE,155,0.0,-999.0,30,-99.99,,,0.00,weatherlink.com 1.10,2013-03-13 21:56:00,
2013-03-13 18:11:00,55.7,27.0,29.99,SE,127,0.0,-999.0,33,-99.99,,,0.00,weatherlink.com 1.10,2013-03-13 22:11:00,
2013-03-13 18:45:00,52.8,24.0,30.01,East,89,2.0,-999.0,32,-99.99,,,0.00,weatherlink.com 1.10,2013-03-13 22:45:00,
2013-03-13 18:56:00,51.4,27.0,30.02,ESE,107,0.0,-999.0,39,-99.99,,,0.00,weatherlink.com 1.10,2013-03-13 22:56:00,
2013-03-13 19:40:00,50.2,26.0,30.02,East,90,0.0,-999.0,39,-99.99,,,0.00,weatherlink.com 1.10,2013-03-13 23:40:00,
2013-03-13 19:57:00,47.6,24.0,30.05,SE,145,0.0,-999.0,39,-99.99,,,0.00,weatherlink.com 1.10,2013-03-13 23:57:00,
2013-03-13 20:12:00,47.0,24.0,30.06,ESE,103,1.0,-999.0,40,-99.99,,,0.00,weatherlink.com 1.10,2013-03-14 00:12:00,
2013-03-13 20:40:00,46.9,24.0,30.06,East,94,0.0,-999.0,40,-99.99,,,0.00,weatherlink.com 1.10,2013-03-14 00:40:00,
2013-03-13 20:57:00,45.1,23.0,30.07,SE,134,1.0,-999.0,42,-99.99,,,0.00,weatherlink.com 1.10,2013-03-14 00:57:00,
2013-03-13 21:12:00,44.6,24.0,30.08,East,101,0.0,-999.0,44,-99.99,,,0.00,weatherlink.com 1.10,2013-03-14 01:12:00,
2013-03-13 21:40:00,44.5,24.0,30.08,East,101,0.0,-999.0,45,-99.99,,,0.00,weatherlink.com 1.10,2013-03-14 01:40:00,
2013-03-13 21:56:00,42.9,24.0,30.10,ESE,113,1.0,-999.0,47,-99.99,,,0.00,weatherlink.com 1.10,2013-03-14 01:56:00,
2013-03-13 22:11:00,42.3,23.0,30.11,SSE,148,1.0,-999.0,47,-99.99,,,0.00,weatherlink.com 1.10,2013-03-14 02:11:00,
2013-03-13 22:40:00,42.2,23.0,30.11,SE,132,0.0,-999.0,46,-99.99,,,0.00,weatherlink.com 1.10,2013-03-14 02:40:00,
2013-03-13 22:57:00,40.6,22.0,30.13,SSW,195,1.0,-999.0,48,-99.99,,,0.00,weatherlink.com 1.10,2013-03-14 02:57:00,
2013-03-13 23:42:00,38.9,21.0,30.14,SSW,200,0.0,-999.0,48,-99.99,,,0.00,weatherlink.com 1.10,2013-03-14 03:42:00,